This is the latest recevied weather packets stored in our database for station/object NO9B. If no packets are shown the sender has not sent any weather packets the latest 1 day(s).
| Time | Temp. | Humidity | Pressure | Rain* | Wind** | Luminosity | Snow |
|---|---|---|---|---|---|---|---|
| 1778026372 | 12.78° C | 30% | 1009.2 hPa | 0 mm | 1.34 m/s, 330° | 14 W/m² | - |
| 1778026069 | 12.78° C | 32% | 1009.3 hPa | 0 mm | 1.79 m/s, 356° | 18 W/m² | - |
| 1778025766 | 12.78° C | 33% | 1009 hPa | 0 mm | 1.34 m/s, 334° | 19 W/m² | - |
| 1778025463 | 12.78° C | 32% | 1009.1 hPa | 0 mm | 0.45 m/s, 272° | 21 W/m² | - |
| 1778025161 | 12.78° C | 30% | 1009.1 hPa | 0 mm | 0.45 m/s, 269° | 30 W/m² | - |
| 1778024857 | 12.78° C | 31% | 1009.1 hPa | 0 mm | 0.89 m/s, 254° | 29 W/m² | - |
| 1778024555 | 12.78° C | 32% | 1009 hPa | 0 mm | 0.45 m/s, 272° | 32 W/m² | - |
| 1778024251 | 12.78° C | 30% | 1009.2 hPa | 0 mm | 1.34 m/s, 197° | 32 W/m² | - |
| 1778023950 | 12.78° C | 30% | 1009 hPa | 0 mm | 0.89 m/s, 259° | 36 W/m² | - |
| 1778023646 | 13.33° C | 31% | 1009.1 hPa | 0 mm | 0.45 m/s, 337° | 37 W/m² | - |
| 1778023344 | 13.33° C | 30% | 1009 hPa | 0 mm | 0.45 m/s, 233° | 46 W/m² | - |
| 1778023040 | 13.33° C | 29% | 1009.2 hPa | 0 mm | 1.79 m/s, 254° | 46 W/m² | - |
| 1778022740 | 13.33° C | 30% | 1009.1 hPa | 0 mm | 0.45 m/s, 237° | 46 W/m² | - |
| 1778022437 | 13.33° C | 30% | 1009.1 hPa | 0 mm | 1.34 m/s, 198° | 56 W/m² | - |
| 1778022134 | 13.89° C | 29% | 1009.1 hPa | 0 mm | 0.89 m/s, 320° | 57 W/m² | - |
| 1778021830 | 13.89° C | 29% | 1009.2 hPa | 0 mm | 0.89 m/s, 258° | 47 W/m² | - |
| 1778021527 | 13.89° C | 29% | 1009.2 hPa | 0 mm | 0.89 m/s, 311° | 40 W/m² | - |
| 1778021222 | 14.44° C | 28% | 1009.1 hPa | 0 mm | 1.34 m/s, 216° | 80 W/m² | - |
| 1778020921 | 14.44° C | 29% | 1009.2 hPa | 0 mm | 1.34 m/s, 302° | 79 W/m² | - |
| 1778020618 | 14.44° C | 28% | 1008.8 hPa | 0 mm | 1.79 m/s, 213° | 73 W/m² | - |
| 1778020313 | 14.44° C | 30% | 1008.7 hPa | 0 mm | 0.89 m/s, 273° | 68 W/m² | - |
| 1778020010 | 14.44° C | 28% | 1008.9 hPa | 0 mm | 0.89 m/s, 247° | 104 W/m² | - |
| 1778019706 | 14.44° C | 27% | 1009 hPa | 0 mm | 2.24 m/s, 267° | 160 W/m² | - |
| 1778019403 | 14.44° C | 27% | 1008.9 hPa | 0 mm | 0.89 m/s, 317° | 154 W/m² | - |
| 1778019100 | 14.44° C | 29% | 1008.8 hPa | 0 mm | 0.89 m/s, 349° | 81 W/m² | - |
* Rain latest hour (hover to see other rain measurements)
** Current wind speed in m/s (hover to see current wind gust speed)